RH
43 40 36 33 30 27 25 22 19 19 18 16 16 16 22 27 26 25 24 30 33 30 29 28 27 26 25 22 21 24 27 29 30 30 26 15 9 7 13 20 20 22 24 24 25 23 21 20 21 21 21 22 21 17 13 14 12 9 15 18 18 18 15 14 14 13 12 12 10 8 8 9 9 8 7 6 11 33 53 63 71 73 76 76 72 65 56 50
40 39 37 34 32 29 26 24 20 20 19 17 17 16 19 26 29 29 28 33 34 31 29 28 26 25 25 23 21 21 23 24 26 29 24 16 12 8 12 18 20 23 23 23 24 22 21 18 19 21 22 20 17 15 14 13 10 10 17 18 20 21 15 12 13 11 12 11 9 9 8 9 10 9 7 7 10 19 38 58 74 83 82 74 70 66 57 49
35 35 34 33 32 30 28 26 22 21 20 19 18 17 17 21 27 32 33 34 33 31 29 27 25 24 24 22 21 21 22 23 25 25 21 18 16 9 12 19 22 23 22 23 22 22 22 19 21 24 24 19 15 14 13 11 8 9 12 16 20 19 12 12 13 11 11 10 10 10 9 10 9 9 8 8 11 11 16 37 70 89 80 68 65 59 51 44
26 29 28 28 29 29 29 27 25 22 21 21 18 19 18 18 22 26 31 32 30 29 26 26 24 22 23 22 22 21 21 27 26 22 20 20 17 15 17 21 22 22 22 21 20 20 21 20 21 23 25 22 17 13 11 10 8 9 11 14 16 14 12 11 11 10 10 10 11 10 10 11 10 9 8 9 12 12 17 31 54 73 67 59 56 48 41 34
17 22 23 23 24 26 28 27 26 24 22 22 20 19 19 18 19 21 25 25 25 25 23 24 22 22 22 21 22 19 23 35 32 23 22 20 17 19 22 21 22 23 22 21 19 18 18 18 19 20 22 20 17 13 11 9 8 11 12 12 11 12 13 11 11 11 11 10 11 11 11 11 10 9 7 10 12 13 28 39 42 50 52 50 48 40 33 26
13 16 18 19 19 22 25 26 26 25 24 25 24 22 20 20 19 19 20 20 21 21 21 22 21 21 21 20 21 20 28 39 34 26 24 21 15 16 20 21 22 23 22 21 20 19 18 17 18 20 19 16 16 14 12 9 10 15 14 13 12 13 14 12 12 12 11 11 12 11 11 11 9 10 8 10 13 17 32 38 39 45 47 46 40 33 27 24
12 13 15 16 16 18 21 24 24 25 25 25 27 26 24 24 21 20 19 18 19 19 21 22 21 21 20 20 20 23 31 34 31 28 25 19 12 12 18 21 22 22 20 20 20 19 20 19 17 17 17 18 18 15 13 11 11 14 15 15 13 13 14 13 13 13 13 12 13 11 11 12 10 10 11 12 12 21 32 35 45 53 50 44 37 33 30 28
13 12 13 14 14 14 17 22 22 24 25 24 26 28 29 28 26 25 23 20 18 20 22 21 22 20 19 20 20 26 29 26 26 26 23 17 13 17 20 20 21 21 20 19 20 18 19 19 17 17 18 20 19 16 15 14 15 15 14 15 15 14 14 14 13 13 14 13 13 13 13 12 12 11 11 14 10 18 36 43 51 57 52 48 45 43 39 36
13 12 12 13 13 13 15 19 20 21 25 25 23 25 29 29 28 28 27 23 19 22 22 22 22 19 20 19 21 31 28 22 24 23 22 19 16 19 20 19 19 20 20 20 19 18 18 18 17 17 18 18 18 17 16 17 19 15 14 15 15 15 14 15 14 13 13 14 13 14 16 13 11 12 10 15 10 14 39 47 48 54 55 56 54 50 47 45
13 13 12 12 12 12 14 17 18 19 23 25 22 22 27 29 29 28 27 24 21 23 23 24 22 19 21 18 25 37 27 19 23 21 21 21 18 18 18 17 17 18 19 19 19 18 18 18 17 17 17 18 17 18 16 17 19 15 15 15 15 15 15 14 14 15 14 15 15 14 18 14 10 14 12 15 12 15 38 50 50 56 58 59 56 54 54 55
13 13 12 12 12 12 14 16 17 20 23 24 21 19 23 27 29 28 26 23 21 22 24 25 22 20 20 19 28 35 24 19 22 19 18 19 20 19 18 17 17 18 18 19 19 18 18 18 17 17 18 18 18 19 16 15 17 15 15 17 17 17 17 20 18 17 17 18 19 16 18 18 13 16 16 15 14 18 36 51 54 59 61 59 56 53 50 50
13 13 13 12 11 11 14 16 17 21 22 22 22 20 22 25 27 25 22 21 21 21 23 24 22 20 20 22 25 26 22 20 20 18 17 17 18 18 19 18 18 17 16 17 17 17 17 17 17 17 18 18 19 19 17 17 19 19 20 23 27 27 23 25 26 21 21 25 23 18 24 32 24 18 18 14 15 23 37 50 53 57 59 57 54 50 45 40
14 13 13 12 11 11 13 15 19 21 20 18 19 18 20 21 22 19 16 18 19 20 23 23 21 20 22 24 22 22 23 20 17 18 18 16 17 18 19 19 18 17 17 16 16 16 16 16 16 17 17 18 20 19 18 16 18 22 23 28 36 40 37 31 30 25 23 28 23 20 32 42 31 17 18 17 16 23 36 46 51 55 57 55 52 50 48 41
13 13 13 12 11 11 13 16 20 20 16 15 15 17 19 19 18 15 14 17 18 21 23 21 20 20 25 27 23 23 21 18 17 17 18 18 17 17 17 17 18 18 19 16 16 16 15 16 17 17 17 17 18 17 19 19 29 34 31 46 48 41 51 45 33 32 31 30 21 23 39 44 34 22 18 18 18 23 32 44 51 55 53 53 52 49 50 46
13 13 13 12 11 11 13 17 20 18 14 16 22 26 27 25 21 16 14 16 17 18 19 20 21 24 31 31 24 22 20 17 17 17 18 18 16 16 15 15 16 17 18 18 17 16 16 16 16 18 17 18 18 19 27 34 52 52 36 58 62 42 56 53 34 36 39 33 23 28 43 43 33 25 19 18 20 22 29 42 51 54 52 51 52 52 52 48
12 13 13 12 11 11 12 18 20 16 14 21 29 32 36 31 19 15 15 15 16 17 17 22 24 29 38 33 22 22 22 18 17 17 17 16 16 16 15 15 15 16 17 18 18 15 16 17 16 18 16 18 22 33 50 56 71 73 48 54 61 48 55 52 39 38 36 33 28 30 41 40 30 24 22 20 21 23 29 41 51 55 56 55 54 55 55 52
11 13 13 12 12 10 12 19 18 17 22 28 32 34 38 33 20 14 14 15 17 17 16 19 20 28 35 29 21 21 22 19 17 16 16 16 16 16 17 15 13 15 16 16 16 15 15 16 16 21 23 25 32 47 60 63 71 77 62 54 57 53 52 54 48 36 30 32 30 30 36 36 30 25 25 23 23 24 28 39 49 54 58 61 60 59 59 57
10 12 13 12 12 9 13 20 18 22 33 35 36 34 31 33 29 19 16 19 18 19 24 23 21 30 31 23 21 19 18 18 16 16 16 16 16 16 17 16 16 17 17 15 14 15 15 16 21 28 37 40 43 51 51 50 51 49 45 43 50 54 48 53 54 40 34 34 34 40 40 35 31 27 26 24 23 25 27 36 47 54 59 63 63 61 61 60
10 12 12 12 12 9 15 22 18 26 37 35 35 34 27 29 33 27 24 27 25 28 37 34 28 34 29 20 19 17 15 16 15 16 16 16 17 16 16 17 18 17 17 18 18 16 14 19 24 30 45 45 38 41 36 33 33 30 30 31 44 59 55 53 54 42 34 35 44 50 45 36 30 29 28 26 25 24 26 32 41 52 60 63 64 62 60 59
10 10 11 13 10 9 19 23 21 29 35 35 33 35 33 30 35 34 30 30 28 29 34 31 29 32 29 22 18 16 16 16 15 16 16 17 16 15 16 16 16 19 20 23 23 17 16 28 34 38 52 46 29 29 28 25 26 29 35 37 46 58 57 50 45 37 33 47 60 51 42 40 37 39 35 27 26 27 28 30 35 48 58 62 62 58 54 55
10 10 10 12 10 10 21 25 26 31 33 35 35 36 38 36 39 40 35 31 25 24 27 26 28 29 28 25 19 16 16 15 16 17 16 17 17 16 18 16 17 22 22 22 23 22 26 39 40 37 42 35 25 28 26 25 28 34 43 46 48 52 50 40 35 36 37 60 74 53 46 54 53 57 49 35 32 32 31 30 34 46 51 52 51 49 51 56
10 10 10 11 10 10 21 27 28 31 32 35 36 37 39 38 39 40 38 35 24 19 23 24 28 28 24 23 21 17 16 17 17 17 17 17 18 18 18 18 20 23 24 26 32 38 42 44 37 30 29 27 28 31 30 31 35 44 52 53 52 53 52 46 43 40 40 66 82 61 59 70 67 68 61 46 38 31 29 28 32 43 46 46 49 50 52 58
14 10 10 11 10 9 22 32 30 32 34 35 36 37 40 41 42 41 38 38 31 19 18 23 25 25 22 20 18 17 16 17 18 17 18 18 18 19 18 21 26 25 25 32 39 42 42 39 33 26 26 29 31 34 39 43 43 47 53 53 52 50 51 57 57 45 40 60 70 59 67 80 78 78 70 52 36 28 28 27 29 35 40 44 46 47 49 56
21 11 10 11 10 9 22 36 34 34 35 35 38 37 40 44 45 46 38 37 39 26 18 22 22 20 20 18 16 18 16 16 18 18 19 19 18 20 20 21 26 26 27 34 39 39 37 33 28 24 26 30 33 38 45 51 51 48 48 46 46 45 44 49 52 50 50 55 59 62 76 86 86 85 79 61 42 30 28 27 29 34 36 39 42 41 44 49
28 14 10 11 11 8 22 38 35 34 36 34 36 35 38 41 43 45 41 43 50 40 24 20 21 20 18 18 18 17 16 16 18 19 20 19 19 21 23 20 22 27 31 33 33 35 32 26 23 25 29 32 34 36 41 50 51 49 50 43 37 38 37 37 41 51 59 56 57 64 74 88 93 89 83 73 57 43 35 29 28 35 36 36 41 39 39 45
33 16 9 11 12 8 19 35 31 30 35 31 30 32 32 35 39 41 47 61 62 45 28 21 21 22 20 20 18 16 21 23 19 19 20 19 18 19 24 26 23 24 28 29 32 34 30 23 23 27 31 37 41 37 37 46 47 45 49 40 33 34 34 37 39 45 58 59 57 60 67 82 88 86 87 84 73 62 56 47 31 30 35 34 37 36 37 47
37 18 9 11 12 10 16 28 29 27 31 29 28 29 27 29 31 35 56 76 62 35 25 24 21 22 22 18 17 21 29 27 19 19 18 19 19 16 24 34 29 24 26 32 42 43 32 27 29 31 33 39 42 37 34 40 41 40 43 36 32 34 32 40 48 58 69 62 62 73 77 81 81 83 92 86 74 70 71 65 40 28 34 35 34 36 42 48
40 20 11 11 11 15 18 26 33 30 32 36 30 28 32 34 33 43 68 73 48 27 25 25 20 20 20 16 18 22 24 23 23 23 17 17 19 16 25 34 27 26 25 28 45 45 31 29 31 35 41 38 34 34 32 34 37 34 35 33 33 35 34 40 54 71 76 62 68 85 80 77 85 91 95 85 73 73 80 72 45 28 33 36 34 38 43 45
43 24 12 11 12 18 22 31 41 38 38 40 29 28 40 46 45 60 79 63 34 27 28 27 24 21 20 19 20 19 17 20 23 22 17 17 20 19 26 27 20 27 27 26 42 42 28 26 29 39 49 38 29 33 32 33 37 33 35 41 43 45 46 48 59 72 78 79 87 91 78 76 89 95 91 83 77 79 88 82 49 28 31 32 33 38 42 43
45 26 12 11 13 19 26 35 43 42 41 36 26 30 43 55 62 76 84 61 36 32 28 26 24 20 22 27 28 23 19 18 18 17 16 19 21 18 21 20 18 34 38 32 38 36 27 23 23 34 40 31 28 31 30 33 36 37 47 56 57 61 66 73 80 77 78 92 95 86 79 76 82 93 91 85 85 83 91 91 56 27 28 30 33 39 41 41
44 26 12 12 16 24 30 34 37 39 38 30 25 32 46 63 79 87 75 50 48 54 41 36 33 22 23 30 30 25 21 19 17 17 20 29 31 25 27 26 27 48 50 38 38 36 34 32 28 30 25 23 32 32 31 36 36 41 55 62 63 70 79 86 91 86 83 90 89 84 86 82 79 90 94 90 89 85 87 88 59 30 30 32 34 39 38 38
42 25 11 12 24 34 35 34 36 36 34 27 26 38 59 75 80 82 67 49 66 77 52 40 36 24 29 40 34 25 24 24 20 20 25 39 43 35 36 34 39 58 56 46 46 42 42 39 31 32 24 21 39 48 48 47 46 49 56 66 74 78 82 87 89 88 87 83 79 79 83 89 91 91 90 87 83 79 79 73 50 31 33 34 33 35 33 34
39 24 10 18 36 40 35 36 36 33 29 28 34 50 75 86 75 72 69 57 64 67 47 33 29 27 39 50 40 27 30 27 21 25 29 39 47 40 36 38 44 57 54 49 51 51 58 54 36 38 35 25 38 55 54 50 52 52 53 68 83 87 91 96 91 82 80 81 81 77 74 85 96 88 79 75 68 65 62 50 38 32 33 34 33 32 31 33
35 22 9 22 43 40 35 39 36 32 29 31 48 68 81 83 70 65 69 64 51 44 40 33 28 35 40 43 39 31 38 37 24 31 39 43 51 46 38 39 41 49 58 61 55 52 62 63 44 39 40 33 38 48 49 54 58 50 51 64 72 81 90 91 90 83 79 84 84 79 80 90 95 84 70 62 54 51 45 34 32 33 31 31 31 30 30 33
31 19 11 29 46 42 40 41 34 35 34 35 61 86 83 73 69 61 54 54 45 33 37 35 35 47 47 46 48 35 34 36 29 39 49 44 48 50 44 41 36 42 60 62 51 48 57 61 48 32 30 35 37 39 42 53 58 50 55 63 59 69 82 77 82 85 80 88 92 86 90 95 90 78 62 49 40 35 35 34 34 33 31 30 31 31 33 36
25 15 23 42 48 44 44 39 35 38 39 47 74 94 83 68 68 61 40 35 35 33 43 45 42 51 54 53 58 45 33 34 35 45 50 44 46 48 44 41 33 39 57 57 48 53 59 60 51 33 30 39 38 37 38 41 55 62 61 58 51 57 69 67 74 83 82 89 93 87 93 96 87 76 59 42 34 31 33 38 37 34 32 32 34 35 37 38
19 18 38 50 47 49 50 41 37 39 44 62 83 90 79 62 54 50 36 27 28 35 50 53 43 45 53 55 57 53 46 46 47 45 46 51 52 42 41 42 32 34 48 49 47 54 56 55 51 39 37 39 33 35 41 37 50 66 60 52 49 53 66 68 68 80 89 94 93 89 95 97 91 86 67 42 35 38 38 39 38 37 35 34 36 36 35 36
15 21 47 53 48 54 57 50 43 43 55 76 89 84 71 56 41 35 31 24 28 43 54 51 42 44 53 56 55 54 52 52 52 45 42 52 51 38 40 44 34 30 33 34 42 52 58 60 57 47 38 37 40 48 53 44 43 51 49 48 52 57 67 67 62 73 86 92 94 93 93 94 96 95 70 42 39 43 43 44 43 41 39 37 36 34 32 34
16 26 51 57 56 59 59 55 43 46 69 85 88 78 62 51 40 34 34 27 29 44 46 41 45 49 52 55 55 53 51 48 50 48 43 49 50 39 37 39 36 32 27 29 40 52 61 64 62 56 40 39 58 65 62 59 53 47 44 50 61 65 62 58 60 70 78 85 93 93 90 93 96 87 59 40 43 46 46 49 48 44 40 37 36 33 34 39
21 35 53 54 57 52 41 42 43 58 83 83 76 71 57 50 44 36 34 27 26 36 37 37 47 50 49 54 54 50 50 50 48 48 46 49 52 44 37 40 42 35 26 30 43 55 62 59 57 60 52 51 63 62 61 67 60 54 56 56 57 57 57 59 61 65 68 75 87 93 94 92 84 71 52 42 46 47 47 50 48 41 37 36 34 33 38 46
27 53 62 49 53 41 26 42 57 69 83 75 72 73 56 47 47 39 31 25 23 28 31 38 47 50 50 52 52 48 52 56 48 45 47 49 56 56 43 35 35 33 35 45 50 52 58 59 57 62 61 61 62 59 64 68 61 65 70 60 49 49 60 68 65 68 73 67 68 82 93 90 75 63 55 48 47 46 43 45 45 40 36 35 33 33 40 47
30 59 56 39 47 40 36 60 66 65 75 69 66 66 49 42 47 39 29 27 26 26 29 37 44 50 50 48 52 53 52 55 51 47 46 43 51 59 43 26 26 30 40 53 51 44 54 67 68 66 62 61 61 59 60 59 60 68 69 68 69 61 66 76 67 68 77 70 68 81 91 88 71 58 55 50 46 42 38 40 40 38 35 33 32 35 40 43
31 48 41 32 42 40 47 71 71 68 76 63 53 53 45 45 49 40 31 31 31 31 34 38 41 45 43 41 51 54 48 50 51 48 47 42 41 44 34 24 27 32 40 52 50 42 53 67 69 70 68 63 65 64 61 60 64 65 63 73 78 62 67 89 86 75 75 77 84 85 86 87 74 58 51 44 40 40 38 38 37 36 36 33 34 37 39 42
40 47 49 49 51 46 49 61 65 71 74 60 55 56 46 43 45 41 37 36 35 36 38 39 38 37 40 43 47 48 49 54 54 51 50 47 38 31 28 26 28 34 41 45 41 37 49 64 73 83 81 77 80 77 72 74 72 67 66 73 76 68 65 76 82 78 71 72 79 75 78 89 80 63 56 49 47 46 41 39 39 36 35 35 36 38 39 44
52 52 54 54 53 54 55 55 57 67 73 69 68 61 48 43 42 38 38 40 39 39 41 41 36 33 40 47 46 46 52 55 55 53 49 49 45 32 26 29 30 32 36 34 30 35 52 65 76 87 87 86 88 79 74 76 67 61 68 73 76 72 60 59 70 78 75 71 73 74 83 90 76 61 60 60 59 55 46 41 39 35 33 36 38 38 41 47
64 66 65 58 51 51 54 50 49 58 69 73 71 61 51 49 44 34 35 41 43 42 41 40 37 39 44 47 48 48 47 47 50 52 47 50 52 37 26 31 31 27 32 30 24 37 63 72 74 82 83 81 78 70 70 68 55 52 66 78 82 74 68 70 70 71 80 80 76 81 86 80 67 60 62 64 65 64 56 44 38 36 36 38 40 40 44 49
70 75 74 68 63 59 53 45 44 54 60 62 64 58 52 54 50 42 41 44 45 46 45 43 45 50 52 50 49 46 43 47 50 48 45 47 50 43 32 32 32 30 34 29 24 48 79 78 67 68 70 73 74 72 69 59 50 57 69 79 87 82 73 66 54 56 73 74 70 81 83 72 66 64 62 62 65 68 61 45 38 40 40 40 41 42 46 50
74 73 67 65 72 74 64 51 50 56 58 62 66 57 54 61 60 55 52 49 49 48 49 59 64 60 58 56 51 45 48 56 56 51 47 45 49 53 44 37 37 34 33 31 34 61 84 77 64 62 64 70 72 71 70 62 59 70 77 80 88 84 68 55 54 64 66 61 66 78 82 80 76 69 62 58 59 59 52 43 41 43 42 41 41 43 48 51
75 75 67 61 67 68 62 55 54 59 61 66 68 57 55 64 62 59 58 59 67 61 50 63 74 63 60 62 54 51 53 53 52 53 50 45 49 55 49 45 45 35 33 41 46 57 71 75 71 64 64 71 67 64 69 68 64 70 77 83 88 86 76 66 73 84 75 67 76 81 84 86 77 66 60 53 49 48 44 43 45 43 42 42 40 44 51 52
80 83 72 65 67 63 58 56 56 63 65 61 60 60 64 66 61 59 59 59 71 71 56 60 70 67 67 64 57 59 60 56 55 54 49 49 55 58 51 49 50 41 39 50 54 53 58 72 76 65 67 78 71 64 73 75 70 73 83 93 92 86 84 81 88 96 81 72 80 83 83 84 72 62 57 47 42 44 45 47 47 43 43 43 41 45 51 51
83 82 71 71 78 69 58 56 56 64 69 61 57 63 69 71 66 62 61 54 56 66 63 60 67 73 74 66 62 62 57 56 60 52 43 43 48 50 46 42 47 50 48 51 60 61 57 68 77 69 71 80 69 62 76 80 75 75 83 94 91 80 77 78 84 86 71 67 78 77 76 82 76 62 53 45 43 46 46 47 45 44 44 43 42 47 51 50
75 73 65 68 79 70 60 64 64 63 65 60 57 58 60 65 66 61 60 56 49 50 54 53 57 68 71 64 61 56 45 43 47 42 39 38 35 35 35 32 35 46 55 59 64 68 65 70 80 73 69 80 78 68 72 74 69 71 78 83 82 80 81 77 75 78 73 71 77 74 74 79 74 59 50 48 49 49 49 47 45 45 45 43 44 48 49 51
Wind_Speed
22 22 22 21 21 20 17 16 14 12 11 10 8 6 4 3 2 2 2 4 6 7 7 8 9 8 7 7 7 7 7 6 6 7 6 5 8 4 3 2 4 5 6 7 9 9 5 1 2 2 6 8 8 7 5 8 11 7 3 2 1 2 2 3 1 2 3 1 6 10 12 7 5 9 8 9 19 29 32 31 29 26 24 21 17 15 14 13
20 21 21 21 20 20 18 16 14 12 10 10 8 7 5 3 3 2 2 4 6 8 8 8 9 9 9 9 8 8 7 8 9 9 5 5 10 4 4 3 4 6 7 8 9 11 9 5 5 7 7 8 8 7 5 6 8 5 3 2 3 4 4 2 3 3 4 2 4 10 11 7 4 4 6 6 9 19 21 21 26 26 21 18 17 16 15 15
19 20 20 20 20 20 18 16 14 12 10 9 8 7 6 4 3 2 3 5 6 8 8 9 10 9 10 9 10 9 9 11 11 7 1 5 10 5 5 3 4 6 7 9 9 10 10 8 9 12 10 7 9 9 6 6 7 4 4 2 4 5 3 2 8 7 6 5 4 8 10 8 8 6 4 2 6 11 10 13 18 20 18 18 17 16 15 16
19 19 20 20 20 19 18 17 14 12 10 9 8 7 6 5 4 3 4 6 7 8 8 9 9 9 10 10 10 10 12 11 6 3 2 6 8 5 6 3 4 7 9 9 9 9 11 10 11 13 10 7 9 7 6 8 6 3 5 3 6 4 1 2 9 7 4 6 4 4 7 8 11 10 7 4 6 6 7 16 18 19 20 18 17 16 16 16
19 19 20 20 20 19 18 17 15 13 11 9 8 7 6 5 4 4 4 6 7 7 8 9 9 9 9 11 10 11 12 5 4 5 3 8 6 8 5 2 5 9 9 8 8 9 10 10 10 11 6 6 7 3 6 11 7 2 3 4 4 2 1 4 7 6 1 4 3 3 4 5 8 8 9 10 7 4 12 21 21 21 19 18 17 16 15 16
19 19 19 19 20 19 18 17 16 14 11 10 8 7 6 5 4 4 4 5 7 7 7 8 9 8 8 10 10 10 8 1 6 6 4 9 3 9 4 3 6 9 9 10 12 12 12 13 10 7 3 3 5 2 3 9 8 1 2 1 3 1 1 1 4 4 1 3 4 2 1 4 4 5 9 15 12 14 21 21 21 21 19 18 17 15 15 16
20 19 19 19 19 19 18 17 16 15 12 10 9 8 6 6 5 4 5 5 6 7 7 8 8 8 8 9 9 10 8 6 8 3 5 9 4 9 5 2 6 8 10 12 16 16 14 14 12 7 3 3 6 4 6 1 6 3 1 2 3 3 7 3 3 4 1 2 3 3 4 4 3 3 8 13 13 19 24 21 22 23 21 20 18 17 17 17
20 20 19 19 19 19 19 17 17 17 15 12 10 9 7 7 6 5 6 6 6 7 7 8 8 8 8 8 10 11 10 7 4 2 8 9 7 8 5 2 6 8 9 12 18 18 13 11 13 13 5 3 8 6 12 9 2 4 1 2 5 5 8 3 3 6 4 2 4 5 5 5 4 2 6 9 11 18 25 23 24 26 24 22 22 21 19 19
20 20 20 20 20 19 18 18 18 17 17 14 11 10 8 8 7 6 7 6 6 6 6 7 7 9 9 9 11 10 7 4 4 4 9 10 5 5 3 3 5 6 8 11 17 16 10 8 11 13 5 5 12 11 12 7 2 3 2 2 5 7 10 4 4 5 4 3 4 4 3 5 5 2 4 8 11 17 27 27 24 27 27 25 25 23 21 20
20 20 20 20 20 19 18 18 18 19 18 15 12 10 9 8 7 7 7 7 6 5 5 6 6 8 9 11 10 6 5 4 2 3 7 8 5 3 3 5 5 5 8 12 13 12 11 10 9 11 6 6 12 12 9 5 3 10 4 4 7 10 13 6 5 6 3 2 3 3 0 5 7 5 2 8 13 18 29 30 25 29 27 26 25 22 21 19
21 21 21 21 21 19 19 18 19 20 18 15 12 10 9 9 8 8 8 8 7 5 4 5 7 8 8 12 10 3 5 5 1 4 5 6 5 4 6 7 8 6 9 9 7 9 12 10 9 9 4 6 11 11 9 8 9 10 4 7 10 10 11 7 6 7 2 4 9 5 2 7 9 5 1 9 15 20 30 30 27 28 26 26 25 22 21 19
21 21 21 21 21 20 19 19 19 19 17 14 12 10 10 9 9 9 8 8 8 5 4 4 6 7 8 12 10 4 5 5 3 4 5 4 4 2 3 5 7 6 5 6 7 8 9 8 9 8 4 7 7 5 8 13 13 9 6 4 7 7 7 6 6 7 6 4 14 14 5 6 5 1 4 10 15 23 31 29 28 28 26 26 24 23 22 20
21 21 21 22 21 20 19 19 20 18 15 13 11 10 9 8 9 8 6 6 7 4 3 3 6 8 10 10 6 3 4 3 3 5 5 4 6 6 4 4 3 3 3 4 6 7 6 6 7 7 7 7 4 4 9 13 11 7 4 3 3 6 3 4 5 7 6 3 9 13 4 4 3 0 7 10 16 28 31 27 26 26 25 24 23 23 23 23
21 21 22 22 21 20 19 20 19 16 14 11 9 9 9 8 8 6 4 5 5 4 3 3 6 8 10 9 3 2 3 2 5 8 6 3 6 8 9 9 8 7 5 2 4 5 6 7 7 7 7 6 5 8 10 10 7 4 3 2 3 3 5 6 5 3 3 2 4 10 1 5 5 2 6 8 15 28 27 24 25 25 24 23 21 22 23 23
21 22 22 22 22 20 20 20 18 15 11 8 9 11 11 11 8 5 2 3 4 3 3 4 6 7 11 9 1 1 1 5 6 7 6 5 5 6 8 7 8 10 11 9 7 6 6 5 5 5 6 7 6 5 5 4 4 3 3 4 3 1 5 8 5 2 2 3 2 7 1 4 5 3 8 11 17 25 24 24 25 24 24 22 20 21 21 21
21 22 22 22 22 20 20 19 17 13 8 7 10 12 12 11 7 4 1 2 3 2 3 4 4 6 8 6 1 1 3 4 2 4 6 4 4 5 6 4 4 7 11 12 10 9 8 7 6 6 7 5 2 2 3 4 4 3 3 1 4 2 3 5 4 0 2 2 2 5 2 2 4 0 12 15 20 25 24 24 24 24 24 22 21 20 20 20
22 21 22 22 21 20 19 18 15 10 8 10 12 11 10 9 5 4 2 2 3 3 5 6 7 9 6 3 2 2 5 6 2 2 6 4 4 6 6 3 3 5 9 11 12 12 12 9 6 5 4 2 2 4 4 4 3 4 2 0 3 2 1 3 5 4 1 2 1 3 2 3 4 4 17 18 19 23 22 22 23 23 22 22 22 21 19 19
22 22 21 22 21 20 18 17 13 8 11 13 13 12 10 9 5 4 4 6 7 6 6 7 7 6 4 5 3 1 3 6 2 1 4 7 7 4 4 6 6 8 9 8 9 11 12 7 1 1 3 3 3 4 4 1 3 3 3 1 2 2 2 2 4 3 4 1 1 5 2 2 3 4 15 18 17 19 18 20 24 23 22 22 22 21 20 19
23 22 21 22 21 19 17 15 10 8 12 14 12 12 12 12 7 4 8 12 11 7 4 6 5 2 6 10 3 1 2 4 4 4 3 7 9 7 7 8 11 12 8 4 4 8 10 3 3 1 1 2 1 4 4 3 4 1 4 2 2 0 3 4 4 2 4 3 4 7 5 4 1 3 10 17 19 18 17 18 21 22 22 22 21 21 20 19
23 22 21 21 20 19 15 11 8 8 12 13 14 14 15 15 8 4 15 19 15 10 10 12 12 13 16 12 6 7 5 2 5 6 3 4 7 9 7 6 11 9 4 3 4 6 7 2 2 3 5 5 2 4 4 1 2 3 4 3 3 2 2 4 4 4 3 5 5 8 6 3 1 4 5 14 19 16 16 17 19 19 20 19 20 20 18 18
23 22 21 21 20 17 11 8 8 9 12 13 15 15 14 13 7 6 18 20 16 13 14 16 15 18 19 14 10 9 6 5 9 8 5 3 2 5 6 7 5 4 5 7 5 3 5 5 3 6 6 4 1 2 2 3 4 5 4 3 3 1 2 4 1 3 3 6 3 7 7 6 6 7 8 8 12 9 12 16 19 20 19 17 17 17 16 16
24 23 21 20 19 15 9 6 7 10 13 13 14 15 14 11 7 10 13 14 15 12 12 15 15 17 16 14 12 8 6 7 6 3 4 2 3 3 5 6 2 2 5 5 2 3 5 2 5 4 1 3 7 7 6 6 6 6 3 3 2 2 2 4 1 1 3 3 0 3 4 4 7 7 9 9 3 7 12 14 18 22 20 18 17 17 17 15
24 23 21 20 18 14 7 5 7 10 13 14 14 17 16 11 9 15 12 9 13 14 12 14 14 15 14 10 8 6 6 5 2 5 3 0 5 6 4 4 2 2 5 4 4 4 3 3 4 3 8 9 9 8 8 7 5 4 3 4 1 3 1 2 4 2 2 1 3 3 3 1 5 5 7 11 8 5 15 13 15 21 20 18 18 17 17 16
24 23 21 19 17 13 5 4 7 8 10 12 12 14 14 11 10 16 13 5 7 10 10 12 11 9 8 9 4 3 4 4 2 4 3 3 6 6 2 2 4 4 5 4 3 5 2 5 2 7 9 10 10 7 7 6 4 2 1 4 2 3 2 4 2 3 3 4 3 4 3 2 3 4 4 10 14 4 13 14 15 20 21 19 18 17 17 16
23 23 21 19 18 12 4 2 4 5 6 6 7 7 8 10 11 13 10 2 3 6 4 6 7 2 4 6 2 2 4 3 5 5 1 4 7 5 2 2 3 2 5 5 3 4 0 4 1 8 8 9 8 5 4 5 2 4 3 4 4 3 4 4 1 4 4 4 2 2 3 4 3 3 3 6 9 7 6 10 13 20 22 19 19 18 16 15
22 22 21 19 19 13 5 2 3 4 4 5 8 9 7 9 11 11 5 3 3 4 1 0 3 1 1 3 2 1 4 2 5 3 3 5 6 4 3 3 2 2 5 2 2 1 1 2 4 8 7 8 7 3 1 4 3 2 4 3 2 2 2 1 3 3 1 1 3 1 4 3 3 1 2 4 4 7 8 4 7 16 18 17 19 18 16 16
21 21 20 18 19 15 7 5 6 6 7 8 12 13 10 8 9 8 3 4 3 2 1 1 2 2 1 4 4 1 1 1 3 4 3 4 4 3 2 3 2 3 3 3 3 2 1 4 7 7 7 6 5 3 1 2 5 1 6 3 2 1 1 2 4 3 2 3 2 5 3 2 1 2 2 2 3 5 7 8 5 12 15 18 20 18 18 17
19 20 19 17 17 15 9 7 6 5 7 11 14 12 9 7 6 4 3 4 2 2 1 2 1 3 2 5 6 5 3 4 2 3 4 3 3 3 1 2 1 3 4 5 2 5 1 3 3 6 6 4 3 3 3 3 4 4 6 2 1 0 2 3 4 4 2 3 2 6 4 3 2 3 2 2 1 3 4 7 3 10 14 20 21 18 19 16
18 18 19 17 16 12 9 7 5 7 9 12 14 10 7 6 5 2 5 3 3 2 2 2 3 4 1 2 8 7 4 3 1 3 5 4 2 2 2 1 3 4 6 6 2 5 1 5 5 6 5 1 2 3 3 5 1 5 3 2 2 3 1 1 4 4 3 4 1 5 3 2 2 3 2 0 2 3 1 8 4 10 16 20 19 18 18 17
17 17 17 17 15 11 8 6 6 9 13 14 13 9 6 4 2 4 4 1 2 5 6 3 3 5 2 2 4 3 1 3 3 1 2 6 5 5 4 5 8 5 4 6 3 4 1 6 4 4 4 2 3 3 4 5 1 2 4 4 5 5 4 3 3 4 4 3 3 5 1 2 1 3 2 1 1 2 2 5 4 8 14 16 17 19 20 19
16 15 16 16 13 10 9 6 6 10 14 14 12 8 5 3 3 5 1 2 1 7 10 3 3 4 3 3 2 2 1 2 2 3 3 4 6 9 6 5 7 5 4 7 6 7 5 3 3 5 7 4 3 3 4 5 5 5 5 4 3 4 4 4 4 4 4 1 4 3 1 3 1 3 2 3 2 1 4 4 4 6 15 21 23 22 20 18
16 14 14 14 11 8 7 6 7 11 12 12 10 7 3 3 4 2 2 2 1 4 6 3 3 4 2 2 2 3 2 2 3 3 3 2 4 6 3 2 2 4 4 4 5 6 4 3 3 4 6 5 3 3 5 6 7 6 4 5 5 3 4 3 3 3 2 2 3 3 1 2 1 4 3 6 7 9 10 6 2 10 20 23 23 21 18 16
16 13 12 11 8 5 6 7 9 11 10 9 7 5 4 5 1 2 2 2 1 4 5 2 4 4 2 3 3 4 3 2 2 2 3 3 4 3 3 2 4 4 1 1 3 4 4 5 5 3 3 3 3 3 3 4 4 5 3 3 4 2 3 2 2 1 1 2 2 2 0 0 2 2 1 5 9 11 6 1 8 19 22 21 19 18 17 15
15 12 11 8 5 5 6 8 10 11 10 7 4 4 6 5 2 3 2 2 2 3 3 3 5 4 3 3 2 3 3 2 3 3 3 3 4 3 4 5 5 5 3 1 2 2 1 3 4 3 2 3 2 3 4 2 2 3 1 4 3 3 3 1 2 1 2 2 1 3 2 0 1 2 3 2 4 7 6 9 16 22 20 18 18 16 15 14
13 11 10 5 3 5 8 9 10 11 9 6 4 5 5 1 2 2 2 3 2 2 4 5 4 4 4 3 3 3 3 2 4 4 4 3 4 2 1 2 3 3 4 2 1 1 2 3 5 3 3 1 1 1 2 5 2 2 2 4 1 2 4 1 2 4 3 1 2 3 1 2 1 3 7 5 3 8 12 13 17 20 18 19 18 16 15 14
12 8 5 3 3 7 10 10 10 10 10 6 5 4 1 3 3 1 2 2 1 1 4 6 5 5 4 4 5 5 3 3 4 5 3 3 4 2 0 1 2 1 3 3 1 0 3 3 6 2 4 1 2 1 3 5 1 1 3 2 3 3 6 3 1 1 3 3 2 1 0 3 3 3 5 3 7 10 11 11 14 16 16 18 18 16 15 13
11 7 3 3 6 9 10 11 10 10 9 6 5 1 3 2 1 2 3 3 1 1 4 4 4 3 2 2 3 6 6 4 5 4 2 2 3 3 2 1 2 2 2 3 1 2 3 3 6 2 4 2 2 5 7 7 4 3 1 3 3 2 3 3 1 3 4 3 1 1 1 1 2 2 4 4 7 8 6 7 10 12 15 17 17 17 15 12
13 7 4 4 8 10 10 11 10 8 6 6 3 2 2 2 4 5 6 6 2 3 4 2 1 1 2 1 2 5 4 4 4 3 1 1 2 2 2 1 3 4 1 2 2 1 3 1 6 2 3 2 3 7 6 8 7 5 2 1 2 3 1 2 2 1 2 1 1 2 2 0 1 2 3 4 5 6 4 5 6 9 14 16 16 17 15 14
12 6 4 5 7 9 10 10 8 6 4 4 1 2 1 3 6 9 14 10 1 3 3 2 1 2 2 2 1 3 3 2 2 2 1 1 1 2 1 1 2 5 3 3 4 1 3 3 4 5 3 2 3 5 2 4 6 4 2 4 3 3 2 0 0 1 2 2 1 0 1 0 2 3 2 3 4 4 5 4 5 9 14 16 16 15 16 14
11 5 3 4 6 7 9 8 5 2 3 2 2 2 1 3 7 15 20 12 2 2 2 1 1 2 1 1 0 2 2 1 2 1 1 1 1 3 2 1 1 4 6 5 3 1 3 3 2 6 6 4 2 0 3 2 1 3 4 4 3 2 1 1 0 1 3 3 2 2 1 2 2 3 2 3 4 4 5 5 5 9 14 15 14 14 14 15
9 4 2 4 6 8 10 6 2 1 2 0 2 2 2 2 6 15 17 10 3 1 3 3 2 3 2 2 1 1 1 2 2 1 0 1 2 1 3 1 2 2 5 6 4 2 2 2 1 3 5 2 2 3 3 6 5 4 3 2 1 1 3 3 1 3 2 3 2 3 2 3 3 2 2 3 6 5 7 8 8 9 12 13 12 12 13 13
5 1 1 4 5 8 9 4 2 2 2 0 3 3 4 2 3 9 12 13 8 3 4 3 2 2 2 1 0 1 1 1 1 2 1 2 2 2 4 4 3 5 5 2 2 1 2 3 2 2 2 3 5 2 3 5 5 5 2 3 3 2 4 5 2 3 1 2 1 2 2 4 3 3 3 2 6 7 9 11 10 9 10 10 9 9 11 10
5 4 3 3 3 6 6 3 4 4 1 2 4 5 6 3 1 5 8 10 6 3 4 2 1 2 1 2 2 2 2 1 0 1 1 2 1 3 7 8 4 6 6 1 2 2 1 3 3 2 3 3 4 4 3 3 6 5 1 1 4 2 3 5 5 3 1 2 1 2 1 4 4 5 5 2 4 6 8 10 10 9 8 7 8 9 10 9
6 6 7 5 4 6 4 1 2 3 3 4 4 4 6 5 2 4 4 5 6 3 2 2 1 1 1 2 2 2 2 2 1 1 0 0 1 5 8 8 6 3 3 2 2 1 0 1 3 2 3 4 6 5 4 4 4 2 1 1 3 4 5 3 1 3 2 1 2 3 2 5 4 5 5 2 2 2 4 7 8 8 6 6 9 11 10 9
5 5 7 7 5 5 4 1 1 1 3 4 3 4 6 4 2 5 4 3 6 5 1 3 4 2 1 2 2 0 2 3 0 2 1 1 2 5 7 7 7 5 3 6 6 3 2 2 3 4 2 1 1 2 3 2 1 0 1 0 1 4 6 3 2 3 0 2 2 4 4 5 5 6 6 4 4 4 2 4 6 5 5 7 11 13 10 9
5 2 5 7 6 7 7 4 5 4 2 2 3 4 4 3 3 7 7 4 6 8 3 3 5 5 3 2 2 2 1 1 1 0 1 2 3 2 6 11 10 8 8 8 6 4 3 2 2 5 6 5 5 6 5 2 1 2 1 2 1 3 5 5 4 2 3 2 1 4 5 2 7 6 6 6 4 4 4 1 4 3 5 9 12 12 10 9
4 2 3 4 4 6 8 9 12 10 4 1 1 3 3 3 3 5 6 2 5 7 4 2 4 4 1 2 2 0 1 2 1 1 1 2 3 2 6 11 9 8 10 8 5 4 4 2 1 3 4 5 6 7 5 2 3 4 5 5 4 3 6 6 3 3 4 4 4 6 5 1 6 6 6 7 4 3 6 4 2 3 7 10 11 11 10 10
3 2 4 4 2 1 3 7 12 11 7 3 1 2 1 2 2 2 2 3 4 3 2 2 3 2 1 2 2 1 2 3 2 1 1 1 2 3 3 2 2 6 9 5 2 4 5 1 3 1 3 6 5 6 6 3 3 3 6 7 6 5 6 5 4 5 6 5 5 6 5 4 6 6 7 8 6 5 6 4 4 7 10 10 11 11 10 10
4 2 3 5 2 2 2 8 11 9 7 5 2 1 1 1 2 2 2 2 4 3 2 1 4 4 4 3 4 1 1 1 2 3 2 1 1 1 1 2 3 3 5 4 1 2 4 1 4 2 2 6 6 6 7 4 2 1 2 4 5 6 7 5 3 3 5 4 6 5 4 7 7 7 9 8 6 6 5 4 7 10 10 9 11 11 9 9
5 3 3 5 4 3 6 9 8 6 6 5 3 3 1 1 1 3 2 2 1 3 1 1 4 5 5 3 4 2 4 5 4 3 2 1 1 1 2 2 3 3 1 2 1 2 2 2 3 2 1 6 6 4 5 2 3 3 1 1 4 5 4 3 1 2 2 4 4 2 1 7 6 7 7 6 3 5 5 6 10 10 10 10 11 11 8 8
4 2 3 3 3 4 6 7 6 3 4 4 4 3 2 2 4 3 1 2 5 3 2 3 3 3 4 5 2 3 5 4 5 7 6 4 3 3 3 3 3 3 2 2 1 2 2 1 1 3 2 5 5 4 5 4 4 4 1 3 5 6 3 3 3 4 5 4 2 2 1 6 5 3 3 2 2 4 6 10 13 11 10 10 11 9 6 7
1 1 1 1 1 3 4 6 5 3 2 4 5 4 4 5 4 2 2 3 5 5 5 5 2 1 3 4 3 4 7 8 6 8 9 7 8 8 8 9 7 5 4 3 1 2 4 3 2 3 1 4 6 4 3 4 6 3 5 7 8 5 3 3 3 5 6 6 6 3 5 5 3 1 2 1 1 3 8 12 12 11 10 10 10 8 6 6
Wind_Direction
6 7 8 9 10 9 7 6 11 15 16 16 16 18 17 14 354 314 305 334 344 351 3 8 4 2 354 337 311 289 290 296 297 308 322 26 45 84 152 70 36 33 28 21 12 8 14 349 302 294 262 262 257 260 283 272 247 213 154 84 253 246 257 241 116 109 151 324 333 359 19 31 350 356 14 40 71 84 88 87 91 94 95 100 104 102 95 94
3 4 5 5 7 9 7 3 4 9 12 12 13 13 9 9 4 353 314 320 331 339 350 357 357 358 352 344 326 306 299 301 299 297 296 34 38 69 152 99 51 34 24 19 10 3 11 14 358 351 297 252 237 247 270 258 222 182 113 112 219 210 227 210 125 118 104 68 341 358 7 23 343 344 31 27 72 90 94 96 97 94 95 100 94 89 85 82
1 1 2 2 3 6 7 4 360 1 5 7 7 8 7 2 352 340 317 314 322 330 340 348 349 351 351 343 332 323 317 314 312 308 297 35 27 57 132 107 49 26 16 10 5 1 356 344 340 337 315 267 246 249 243 223 204 184 122 113 239 218 228 101 91 92 83 55 18 5 0 3 352 356 30 72 86 80 100 112 103 101 103 98 87 81 76 72
0 360 359 360 360 1 5 5 360 354 355 358 359 1 2 358 350 332 315 311 314 322 333 341 342 347 349 341 334 329 329 327 335 7 54 22 29 91 121 100 25 11 8 5 5 359 342 327 321 319 316 296 268 243 211 212 197 167 146 166 237 230 278 103 89 83 76 51 26 16 17 354 344 354 3 73 85 35 98 119 116 118 113 102 94 80 69 64
0 359 358 358 357 357 359 2 0 352 345 347 349 351 353 352 349 336 320 310 308 315 328 335 335 340 347 341 331 328 339 346 347 359 12 10 53 128 116 59 7 1 2 3 1 355 345 340 324 309 305 285 276 232 202 206 180 122 186 191 212 191 190 171 89 59 53 54 12 25 47 334 332 350 24 70 90 69 112 118 118 120 115 105 95 81 67 56
1 358 357 356 355 355 354 356 357 354 342 335 337 338 341 342 340 333 322 309 306 312 325 332 329 336 349 340 324 326 343 300 309 332 359 357 78 151 126 33 2 355 355 356 352 346 345 355 352 314 287 294 313 311 214 191 168 145 268 150 151 136 4 187 63 43 78 35 358 5 308 321 2 359 50 84 97 110 121 119 115 114 110 104 93 79 64 51
2 358 356 355 354 353 351 351 351 352 344 330 326 327 329 333 335 326 317 310 309 314 323 330 327 333 344 334 322 323 319 300 312 318 7 3 133 153 137 45 7 359 354 355 350 344 333 347 13 2 349 14 351 335 338 274 161 119 274 1 51 23 17 41 15 343 316 341 305 282 299 323 20 3 57 93 101 110 122 117 112 113 106 100 90 80 69 56
2 359 356 354 353 352 349 348 346 347 345 333 319 317 319 322 326 323 314 306 308 316 321 325 326 330 336 335 332 328 315 324 7 89 21 28 135 143 116 71 14 357 353 357 350 346 329 338 20 17 5 354 1 3 351 347 61 76 159 337 15 357 356 21 325 318 303 292 279 285 292 301 311 352 62 90 94 104 119 117 109 107 98 93 87 79 71 63
2 360 357 353 351 350 348 347 344 342 342 335 320 311 313 316 317 317 310 301 304 312 318 317 319 324 327 332 335 335 326 340 66 77 22 34 117 137 81 43 21 356 353 355 349 351 345 351 18 13 355 333 358 0 351 8 16 331 179 23 4 327 325 312 263 274 257 269 277 286 306 321 333 72 68 62 73 93 115 118 108 102 96 90 85 77 71 67
2 360 358 354 351 349 348 347 344 341 339 334 322 310 307 310 311 314 306 298 299 302 311 307 309 317 319 328 335 343 342 344 73 47 12 16 43 95 66 37 34 3 343 343 350 4 10 15 13 357 349 344 353 345 339 36 337 301 292 356 339 317 316 301 273 284 263 300 287 232 114 15 34 91 32 40 63 88 112 117 107 102 99 92 86 78 73 68
1 360 358 355 352 349 348 346 343 341 339 334 326 316 309 306 307 310 304 297 294 290 298 299 300 308 314 320 317 312 348 345 356 2 354 351 9 67 76 49 32 360 325 328 355 6 2 14 11 351 352 345 338 333 338 5 346 320 344 354 339 337 337 342 334 334 28 39 9 10 68 37 50 83 19 47 67 95 110 110 103 101 99 95 88 79 73 67
360 359 357 355 352 349 348 346 344 344 342 338 332 325 315 308 307 307 302 292 286 280 286 294 294 304 318 313 298 296 349 336 304 335 347 339 328 350 74 48 32 25 344 343 5 2 357 5 6 357 343 337 333 334 339 348 348 352 47 32 337 2 3 357 11 24 58 34 9 20 21 8 27 86 72 63 74 99 107 104 101 100 96 92 84 75 70 64
358 358 357 355 352 350 349 346 346 346 344 343 339 335 328 321 319 317 305 283 277 277 275 284 290 307 321 310 289 295 326 307 277 304 329 356 333 306 296 291 311 19 20 17 5 355 352 336 340 345 332 329 334 326 322 333 340 338 37 97 3 7 333 329 20 35 41 358 19 40 18 308 297 267 73 71 79 93 103 105 103 101 97 90 82 73 66 59
358 358 356 355 352 350 349 346 347 348 348 352 355 352 346 341 341 343 323 272 267 276 277 292 300 314 315 299 267 284 308 228 237 264 272 306 320 309 303 285 259 263 276 296 335 336 337 320 312 314 311 304 301 311 316 327 338 331 2 51 37 12 279 312 359 34 38 292 52 64 2 267 265 265 70 82 94 95 104 111 106 103 99 90 81 72 65 59
358 357 356 355 352 350 349 347 348 350 355 10 15 6 356 352 353 356 341 260 271 275 286 306 305 316 311 299 247 152 203 179 214 237 237 262 294 307 308 289 264 265 267 270 286 307 317 303 280 280 290 296 297 308 328 336 347 12 25 343 335 11 279 310 343 78 104 272 96 91 234 268 257 254 71 93 109 98 101 112 110 106 102 94 85 77 73 66
358 357 357 355 352 350 349 348 350 354 7 18 10 4 352 351 358 1 2 259 297 284 288 301 302 316 313 307 292 181 215 204 239 235 224 260 292 320 326 301 292 281 261 261 272 280 279 271 259 266 281 296 322 74 33 7 350 2 58 307 290 322 310 310 332 357 176 270 56 105 189 260 252 184 72 96 114 99 98 113 116 113 109 104 96 88 82 74
358 357 356 356 353 351 349 349 353 4 22 17 12 15 359 354 6 1 344 296 315 300 289 275 281 295 288 291 294 262 227 216 277 268 221 246 280 331 337 283 272 283 267 266 272 268 260 255 243 258 282 295 77 91 53 12 332 328 24 168 278 279 270 291 311 317 132 150 33 64 152 207 237 93 81 95 111 99 97 111 119 119 115 110 104 96 86 78
357 357 356 356 354 351 350 350 356 22 29 19 19 26 18 7 7 2 356 340 319 304 295 267 270 293 286 303 313 136 175 194 236 318 217 245 267 312 300 259 271 288 291 279 264 251 243 249 193 133 344 355 41 84 80 356 234 274 332 4 330 295 258 261 271 320 33 75 48 35 9 251 278 77 89 94 101 92 90 107 119 120 116 113 107 99 91 81
357 357 356 356 355 353 351 350 2 34 28 25 27 26 27 24 27 34 359 337 312 295 291 267 255 248 286 303 324 66 287 227 267 288 242 259 267 276 266 258 271 280 295 298 263 230 216 233 18 87 287 298 69 120 151 205 204 265 349 50 92 190 268 266 254 295 39 47 43 31 335 272 295 73 95 101 102 90 84 97 110 116 116 116 110 100 92 82
357 359 357 356 357 356 354 357 15 30 24 29 31 30 29 22 28 6 337 324 304 294 288 277 267 266 279 297 344 354 324 258 277 286 294 291 264 267 291 297 282 277 272 243 242 223 192 118 342 230 207 218 192 159 177 184 129 72 49 61 89 117 277 279 285 316 59 84 24 13 356 306 12 6 52 102 106 95 93 89 88 105 114 114 110 99 87 82
356 358 359 357 358 359 360 11 24 27 22 23 28 31 25 17 20 337 331 322 312 308 290 279 274 273 277 282 306 340 344 319 317 304 280 301 288 272 321 356 324 294 274 261 251 207 135 99 242 225 205 209 31 32 23 27 52 74 93 76 34 41 277 270 257 329 40 86 1 1 20 354 1 350 344 59 93 96 103 99 95 106 111 108 106 98 94 93
354 356 359 357 359 2 1 13 20 18 19 26 36 32 21 18 2 329 328 312 307 311 290 281 279 276 274 270 276 298 320 322 340 346 234 243 29 347 349 27 26 277 299 309 1 55 81 123 234 228 130 39 26 25 42 56 67 65 80 87 28 295 292 303 297 49 47 88 350 13 52 350 345 340 337 1 80 131 109 102 112 122 121 117 116 111 112 114
353 353 356 356 359 3 359 11 15 17 29 40 44 29 16 11 341 328 325 288 293 304 285 271 272 276 269 252 252 269 308 333 62 92 115 226 3 3 17 41 22 329 343 7 72 88 87 222 233 74 65 61 42 29 50 56 60 66 78 99 263 276 95 304 310 49 50 88 137 120 101 50 349 351 341 332 314 135 114 97 105 126 130 125 126 126 123 124
350 349 352 354 358 4 2 11 15 26 41 45 41 28 12 360 340 333 328 281 283 297 269 254 267 281 249 221 230 284 325 354 103 110 87 38 6 0 13 35 22 9 335 337 88 111 144 237 214 71 72 81 66 38 53 60 23 340 185 146 200 270 188 213 245 72 39 21 105 106 49 347 3 22 336 323 329 11 121 111 99 118 129 128 130 125 117 117
346 345 348 352 356 3 8 345 9 35 36 25 19 13 358 341 336 337 334 322 293 291 263 248 256 246 177 190 206 333 332 5 118 133 87 20 16 4 348 28 38 352 311 328 60 89 335 259 111 76 70 79 79 53 74 103 26 323 264 201 205 239 250 243 159 80 40 353 264 126 66 307 330 52 311 313 335 352 91 113 112 121 128 127 123 113 105 112
341 342 345 350 351 358 13 320 323 342 334 334 342 341 332 319 323 328 333 43 337 289 338 168 212 203 172 189 202 287 326 1 131 173 302 10 20 25 360 349 62 299 292 347 49 77 313 327 69 87 82 78 79 63 93 123 96 333 269 262 273 233 243 299 77 76 74 247 281 70 121 252 310 98 256 301 333 355 11 19 96 120 128 123 114 108 109 121
339 339 341 348 349 352 6 347 323 314 313 328 337 337 335 324 317 315 336 50 8 295 323 209 183 327 276 178 185 159 336 201 157 263 286 44 34 65 11 316 42 318 284 69 24 285 259 10 45 75 75 71 62 20 287 125 96 290 276 307 355 341 155 136 107 104 178 178 349 3 89 137 285 239 262 333 347 19 7 332 38 103 124 125 117 112 117 124
339 338 337 344 348 348 353 346 343 346 333 335 338 337 342 344 325 319 76 75 329 321 359 267 280 304 219 186 215 209 227 224 141 264 238 97 43 63 73 250 131 339 348 60 348 267 265 35 67 87 70 62 59 10 323 61 84 273 283 330 63 204 185 171 126 120 141 110 359 328 17 88 244 271 332 17 101 57 358 302 355 79 103 120 120 116 121 122
339 338 333 340 346 345 346 343 347 353 339 338 343 341 344 345 331 357 86 80 299 321 359 323 326 300 255 205 245 237 240 242 161 236 213 128 44 23 72 11 47 26 5 44 160 254 247 133 137 111 92 80 82 45 36 72 98 267 302 22 23 30 47 97 106 113 66 65 286 297 4 85 262 293 340 358 156 128 279 289 323 81 103 122 122 116 116 106
340 338 332 337 343 342 344 340 331 338 338 341 341 334 330 329 360 55 59 13 275 330 337 303 283 304 344 39 296 294 108 224 235 253 138 108 60 32 74 49 39 58 6 21 59 307 330 128 118 79 90 130 119 83 63 78 20 312 39 32 15 19 22 34 67 92 63 42 262 282 7 106 267 292 277 193 118 121 175 283 308 90 98 106 108 106 103 91
340 337 332 335 341 342 347 349 336 337 338 335 329 325 327 335 62 82 73 264 275 335 334 292 256 319 20 68 351 342 37 274 309 35 69 87 50 29 48 47 25 43 18 8 13 347 1 65 28 47 58 57 90 54 12 33 32 48 56 41 35 360 3 19 1 44 71 304 262 262 14 82 127 273 263 130 104 173 189 251 296 65 73 78 87 91 88 80
340 335 332 336 341 345 351 355 345 342 336 329 331 335 358 48 39 76 229 292 350 301 300 277 285 320 16 54 1 332 352 354 360 50 75 77 55 30 40 117 80 47 14 350 9 360 353 355 351 47 44 30 74 41 351 359 25 49 45 53 64 3 6 22 338 27 86 258 252 217 145 64 213 250 222 155 170 198 200 238 291 84 83 84 85 82 75 73
340 334 335 339 346 358 4 359 353 350 341 334 343 353 60 80 25 265 262 327 200 223 246 286 309 315 41 51 354 335 7 29 4 44 85 90 78 32 12 74 108 96 99 235 42 13 332 334 351 23 12 5 72 79 8 345 13 28 25 80 96 75 52 350 297 12 313 239 238 267 50 8 282 292 206 171 199 209 195 93 93 93 90 90 85 76 68 68
341 335 340 344 5 23 17 9 3 360 351 347 11 38 59 75 248 271 321 291 221 218 253 302 315 334 53 68 353 6 32 341 336 29 47 68 71 47 18 17 41 90 115 108 79 74 38 319 331 4 320 325 46 119 153 139 50 7 85 114 110 141 132 208 216 157 261 232 276 333 11 105 295 329 313 299 232 200 132 97 95 89 84 82 74 64 57 62
342 338 342 349 44 29 17 12 8 7 1 0 45 64 72 111 255 308 305 265 259 297 311 329 358 30 30 10 3 50 84 314 331 22 30 61 80 97 149 345 349 82 94 60 309 109 75 267 267 325 329 328 85 195 144 95 51 323 84 85 43 190 151 160 200 176 186 177 359 355 343 274 272 271 291 325 54 109 110 100 88 82 77 69 59 52 54 65
347 350 359 43 52 22 17 11 8 13 9 22 66 64 108 203 215 199 235 255 274 323 342 356 26 45 10 352 354 354 16 14 6 21 23 65 69 40 160 261 313 52 110 118 181 356 47 286 263 342 359 12 127 290 34 74 130 296 46 26 261 185 132 116 297 321 90 87 359 359 339 306 325 302 300 1 83 92 91 83 77 75 69 59 56 58 64 69
358 17 49 49 19 12 12 3 5 13 11 44 83 105 228 216 221 221 271 304 321 63 66 36 17 48 22 358 345 334 350 8 13 20 359 37 35 351 343 322 349 33 144 135 136 205 118 312 289 53 51 334 60 49 32 47 80 97 59 267 267 63 86 95 47 357 41 80 295 359 69 332 337 300 313 27 88 98 90 84 78 66 57 56 61 67 65 55
2 28 56 20 2 357 353 349 356 3 12 55 71 272 238 302 318 322 323 322 331 53 77 100 352 91 116 76 324 326 5 14 359 9 347 2 18 351 7 353 3 8 316 120 90 205 109 23 297 3 84 284 23 52 23 12 43 90 164 241 67 66 2 15 55 26 48 93 299 356 46 7 273 244 305 13 74 97 92 89 77 57 53 57 61 57 45 34
357 25 63 19 350 338 334 332 333 341 21 61 23 292 330 289 299 322 324 314 280 78 69 149 130 63 92 121 238 324 28 41 346 5 18 56 30 321 334 189 313 335 339 100 127 190 86 101 277 309 356 341 18 46 29 337 4 38 36 12 47 126 161 20 35 142 121 145 191 73 70 253 234 244 313 31 84 103 93 78 62 58 57 57 55 43 36 47
356 25 80 16 339 324 327 325 318 347 60 86 220 239 292 293 315 326 324 315 244 116 74 157 105 83 70 87 105 327 41 59 350 15 44 71 86 285 287 176 229 324 7 49 85 79 65 89 270 302 341 25 24 354 162 179 3 38 43 23 1 359 51 80 21 65 112 137 156 141 181 244 227 266 334 81 112 117 113 99 71 69 64 56 46 36 49 73
356 30 84 14 349 333 336 339 332 62 97 211 258 246 296 335 326 319 328 347 4 105 112 124 117 120 123 58 29 313 22 7 354 32 357 53 111 240 269 206 190 338 25 40 38 38 78 98 91 314 346 21 243 246 171 168 161 131 126 130 127 9 59 87 339 321 64 115 163 155 177 250 254 335 359 139 146 136 119 112 101 84 70 56 39 38 61 76
3 30 341 344 342 335 340 351 343 9 102 355 293 274 289 321 297 303 336 11 20 35 79 95 107 102 116 116 115 118 75 11 352 35 349 217 155 173 217 202 135 89 83 70 343 355 127 105 87 311 295 225 246 300 101 142 124 107 124 141 131 96 93 118 182 273 354 20 277 136 134 247 261 24 31 144 145 129 118 113 108 94 77 61 46 54 70 67
358 352 348 346 353 350 354 10 350 346 355 310 294 274 278 282 316 334 350 8 13 27 36 26 120 90 116 162 137 111 108 130 188 23 297 254 233 200 201 196 157 95 91 97 319 343 62 72 60 314 307 286 293 345 63 82 76 81 36 73 108 113 120 143 174 179 91 348 349 76 85 255 276 8 23 83 127 115 112 110 105 98 83 61 56 65 65 58
357 13 37 53 25 353 3 93 347 319 301 322 327 309 301 283 302 356 3 10 8 16 22 354 25 117 168 148 125 152 156 120 350 304 226 8 259 214 197 184 169 109 85 172 184 104 14 67 72 48 3 346 339 350 353 348 28 87 240 6 83 95 93 98 101 85 77 239 148 123 228 250 269 336 355 33 49 45 93 101 96 91 73 54 65 66 58 57
17 33 30 30 22 358 1 105 155 270 295 338 349 325 324 307 318 5 18 31 22 23 21 335 355 42 136 111 74 51 137 132 205 287 309 346 279 218 187 158 139 120 136 170 163 133 138 149 104 102 118 255 295 287 279 290 335 349 221 329 69 100 112 131 100 68 83 226 151 154 211 259 294 323 330 338 11 1 11 82 91 86 64 64 69 64 63 68
42 46 348 1 31 31 22 31 39 19 314 356 1 320 332 323 327 7 18 34 24 15 353 325 6 22 32 57 59 1 16 105 151 21 10 319 303 243 163 147 133 130 146 151 140 118 94 85 122 140 162 192 210 232 239 188 211 266 202 191 196 122 116 115 104 120 185 167 285 219 192 267 304 307 308 308 334 320 283 157 109 93 73 76 70 66 79 78
56 78 360 359 8 14 19 18 13 359 316 311 4 275 304 320 321 5 13 13 13 3 340 352 42 50 22 19 51 310 330 19 47 54 332 254 278 348 131 143 141 143 147 142 135 120 73 28 217 167 188 215 214 232 251 233 228 222 179 188 215 144 102 102 134 198 155 104 302 252 176 166 281 273 279 281 287 276 251 220 158 106 93 85 71 72 85 71
52 80 53 37 344 329 19 348 342 339 316 287 238 247 289 355 1 355 334 340 1 14 23 2 19 60 60 52 84 219 318 10 359 284 265 270 319 17 72 150 190 155 141 127 131 122 97 168 244 223 259 263 255 264 278 260 216 198 171 186 194 160 145 159 201 192 143 139 239 226 180 206 253 263 265 261 258 247 230 201 143 114 103 88 70 71 77 58
58 76 42 28 353 253 306 318 324 336 324 295 286 297 285 23 4 268 257 1 354 350 71 334 306 338 359 49 102 141 269 25 316 282 242 235 314 29 78 308 285 193 149 112 100 107 100 206 242 203 268 284 279 282 295 283 210 148 150 184 173 162 171 181 214 197 163 200 227 200 210 252 251 243 252 271 274 242 221 165 128 112 98 81 64 65 70 56
59 45 351 1 350 315 328 334 339 348 337 325 315 296 256 152 222 263 247 113 3 315 34 193 270 298 320 2 84 152 223 184 183 239 221 184 304 257 184 211 215 210 191 96 88 67 92 229 243 127 16 297 284 303 336 329 175 142 78 103 123 126 153 171 196 190 196 258 253 154 261 278 262 227 240 277 267 202 175 132 121 104 89 78 62 60 68 54
70 28 344 352 343 334 343 346 352 354 338 342 333 308 310 260 221 229 308 183 193 223 203 200 250 294 338 360 57 200 244 221 201 229 227 211 234 230 218 228 196 159 155 165 132 89 114 212 286 68 49 282 290 349 16 40 78 83 330 250 166 146 171 206 210 195 186 194 156 90 280 266 262 225 204 230 188 163 141 127 117 95 82 74 60 62 71 49
82 110 104 74 312 328 353 346 352 18 356 338 335 320 319 304 259 202 340 274 217 196 189 184 181 36 360 344 315 289 313 319 297 279 270 265 268 260 253 255 241 202 171 161 152 155 144 138 146 118 128 267 290 348 45 59 45 6 263 215 183 181 210 222 255 243 203 156 134 173 226 233 243 202 142 168 209 141 134 131 120 100 91 78 61 67 69 52